[[{"header":{"parameterUnit":"m.s-1","parameterCategory":1,"la1":30.2991,"la2":30.254,"lo1":-89.0895,"lo2":-89.0444,"dy":0.0017,"dx":0.0017,"nx":28,"ny":28,"refTime":"2023-09-24T09:00:00:Z","depth":0,"parameterNumber":2,"parameterNumberName":"U-component_of_WINDS"},"data":[0,0,0,0,0,0,0,0,0,0,0,0,0,0,0,0,0,0,0,0,0,0,0,0,0,0,0,0,0,0,0,0,0,0,0,0,0,0,0,0,0,0,0,0,0,0,0,0,0,0,0,0,0,0,0,0,0,0,-3.155,-3.155,0,-3.1518,-3.1517,-3.1517,-3.1408,-3.1406,-3.1403,-3.1401,-3.137,-3.1372,-3.1373,0,0,0,0,0,0,0,0,0,0,0,0,0,-3.152,-3.1522,-3.155,-3.155,-3.1549,-3.1518,-3.1517,-3.1517,-3.1408,-3.1405,-3.1402,-3.14,-3.137,-3.1372,-3.1373,0,0,0,0,0,0,0,0,0,0,0,0,0,-3.1515,-3.1522,-3.155,-3.1491,-3.1486,-3.1518,-3.1517,-3.1517,-3.1409,-3.1405,-3.1402,-3.1398,-3.1369,-3.1371,-3.1374,-3.1461,0,0,-3.138,-3.1381,0,0,0,0,0,0,0,0,-3.1516,-3.1517,-3.15,-3.1495,-3.1489,-3.1463,-3.1495,-3.1498,-3.141,-3.1438,-3.1401,-3.1396,-3.1404,-3.1403,-3.1405,-3.1459,-3.1458,-3.1381,-3.1382,-3.1383,-3.1383,0,0,0,0,0,0,0,-3.1516,-3.1517,-3.1537,-3.15,-3.1493,-3.1467,-3.1463,-3.1495,-3.1442,-3.1435,-3.1427,-3.1425,-3.1401,-3.1404,-3.1404,-3.1458,-3.138,-3.1382,-3.1384,-3.1385,-3.1581,-3.1585,0,0,0,0,0,0,-3.1525,-3.1518,-3.1538,-3.1536,-3.1494,-3.1471,-3.1465,-3.1475,-3.1442,-3.1433,-3.1428,-3.142,-3.1402,-3.1402,-3.1403,-3.1501,-3.1383,-3.1385,-3.1386,-3.1577,-3.1582,-3.1586,0,0,0,0,0,0,-3.1524,-3.1527,-3.154,-3.1525,-3.1525,-3.1475,-3.1487,-3.1476,-3.1479,-3.1436,-3.1426,-3.1441,-3.1399,-3.1399,-3.1447,-3.1499,-3.1386,-3.1388,-3.1572,-3.1579,-3.1584,-3.1701,0,0,0,0,0,0,-3.1524,-3.1528,-3.156,-3.1527,-3.1526,-3.1584,-3.149,-3.1478,-3.1483,-3.1472,-3.1445,-3.1438,-3.1396,-3.1444,-3.1449,-3.15,-3.139,-3.1568,-3.1575,-3.1582,-3.1692,-3.171,-3.1725,0,0,0,0,0,-3.1523,-3.1595,-3.1562,-3.1565,-3.1565,-3.1587,-3.1587,-3.1537,-3.1488,-3.152,-3.1492,-3.1438,-3.1493,-3.145,-3.1454,-3.1507,-3.1564,-3.1573,-3.1581,-3.1685,-3.1707,-3.1725,0,0,0,0,0,0,-3.1637,-3.159,-3.1553,-3.1615,-3.1606,-3.1569,-3.1607,-3.1561,-3.1566,-3.1556,-3.1495,-3.149,-3.1546,-3.1531,-3.1484,-3.1589,-3.1519,-3.153,-3.1596,-3.1617,-3.1633,-3.1635,-3.1391,0,0,0,0,0,-3.1669,-3.169,-3.1648,-3.1708,-3.1705,-3.1658,-3.1665,-3.1628,-3.1616,-3.1611,-3.1587,-3.1578,-3.1593,-3.1604,-3.1616,-3.169,-3.1683,-3.1729,-3.1745,-3.1759,-3.1768,-3.1806,-3.1826,-3.1615,-3.1615,-3.1614,0,0,-3.1736,-3.1713,-3.173,-3.173,-3.1718,-3.1742,-3.1655,-3.1684,-3.1701,-3.1616,-3.1658,-3.1641,-3.1627,-3.1688,-3.1714,-3.1678,-3.1825,-3.177,-3.1781,-3.1783,-3.1817,-3.1837,-3.1855,-3.1621,-3.162,-3.1619,0,0,-3.187,-3.1855,-3.1902,-3.1892,-3.1875,-3.1843,-3.1855,-3.1824,-3.1809,-3.185,-3.1787,-3.1807,-3.1835,-3.1827,-3.1827,-3.1959,-3.1909,-3.1964,-3.2051,-3.2088,-3.2105,-3.2119,-3.2165,-3.2183,-3.1974,-3.1974,-3.1974,0,-3.1955,-3.1988,-3.1933,-3.1966,-3.1967,-3.1891,-3.1938,-3.1932,-3.192,-3.1924,-3.1883,-3.1915,-3.1901,-3.1959,-3.1991,-3.1994,-3.2005,-3.1966,-3.2107,-3.2121,-3.2133,-3.2177,-3.2194,-3.1981,-3.198,-3.1979,-3.1979,0,-3.2093,-3.2117,-3.2158,-3.2147,-3.2153,-3.2194,-3.2146,-3.2159,-3.2121,-3.2094,-3.2138,-3.2118,-3.2123,-3.2135,-3.2099,-3.2188,-3.2166,-3.2118,-3.2046,-3.2161,-3.2201,-3.2217,-3.1991,-3.1988,-3.1986,-3.1984,0,0,-3.2297,-3.2255,-3.2271,-3.2264,-3.224,-3.2258,-3.2296,-3.23,-3.2313,-3.2308,-3.2337,-3.2363,-3.2317,-3.2317,-3.228,-3.2313,-3.2418,-3.226,-3.2259,-3.2289,-3.2514,-3.255,-3.257,-3.2385,-3.2388,-3.2391,-3.2515,0,-3.2423,-3.2483,-3.2434,-3.2503,-3.2525,-3.2452,-3.2485,-3.2474,-3.245,-3.2465,-3.2439,-3.2457,-3.2396,-3.2396,-3.2425,-3.2399,-3.2462,-3.2389,-3.2413,-3.2414,-3.2417,-3.2591,-3.2629,-3.2748,-3.2531,-3.2533,-3.2535,0,-3.2578,-3.2578,-3.2649,-3.262,-3.2627,-3.2657,-3.2657,-3.2673,-3.2659,-3.2639,-3.264,-3.2593,-3.2629,-3.256,-3.2607,-3.2559,-3.2566,-3.2555,-3.2558,-3.2557,-3.2481,-3.2594,-3.2784,-3.2802,-3.2559,-3.2557,-3.2555,0,-3.2718,-3.2736,-3.2781,-3.2778,-3.2746,-3.2768,-3.2756,-3.2739,-3.2745,-3.2746,-3.2749,-3.2755,-3.2758,-3.2764,-3.272,-3.2674,-3.2774,-3.2701,-3.2758,-3.276,-3.2782,-3.2781,-3.2974,-3.2789,-3.2788,-3.2788,-3.2788,0,-3.2863,-3.2909,-3.2843,-3.2871,-3.292,-3.2865,-3.2916,-3.2896,-3.2882,-3.2905,-3.2844,-3.2867,-3.2808,-3.2826,-3.2793,-3.2837,-3.2839,-3.2824,-3.2815,-3.2829,-3.2831,-3.2832,-3.2822,-3.2793,-3.2792,-3.2791,-3.279,0,-3.3027,-3.2985,-3.3028,-3.2994,-3.2986,-3.3024,-3.2995,-3.3019,-3.2991,-3.3021,-3.3025,-3.2981,-3.2998,-3.2956,-3.2967,-3.2945,-3.3009,-3.2987,-3.3013,-3.3006,-3.3065,-3.306,-3.3265,-3.3289,-3.3089,-3.3091,-3.3093,0,-3.3122,-3.3155,-3.3124,-3.3134,-3.3125,-3.3143,-3.3148,-3.3095,-3.3104,-3.3091,-3.3117,-3.3129,-3.3135,-3.3167,-3.3137,-3.3145,-3.3122,-3.3193,-3.3123,-3.3136,-3.3122,-3.312,-3.3123,-3.3208,-3.321,-3.3212,-3.3214,0,-3.3294,-3.3272,-3.3281,-3.3284,-3.3291,-3.3291,-3.3287,-3.3299,-3.3243,-3.3256,-3.3272,-3.3277,-3.3288,-3.3301,-3.3302,-3.3291,-3.3244,-3.3237,-3.325,-3.3265,-3.3278,-3.3271,-3.3051,-3.3232,-3.323,-3.3229,-3.3228,-3.3227,-3.3426,-3.3452,-3.3434,-3.3446,-3.3437,-3.3435,-3.3455,-3.343,-3.3442,-3.3446,-3.3414,-3.3438,-3.3424,-3.3421,-3.3414,-3.3432,-3.3399,-3.3419,-3.3424,-3.343,-3.3439,-3.3276,-3.3432,-3.3432,-3.3431,-3.3431,-3.343,0,-3.3594,-3.3579,-3.3591,-3.3586,-3.3596,-3.355,-3.3543,-3.3555,-3.3575,-3.3566,-3.3573,-3.3592,-3.3605,-3.3576,-3.3583,-3.3603,-3.3582,-3.3607,-3.3605,-3.3603,-3.3468,-3.3455,-3.3624,-3.3624,-3.3624,-3.3624,-3.3624,-3.3624,-3.3683,-3.3724,-3.37,-3.3737,-3.3721,-3.3742,-3.3742,-3.374,-3.3731,-3.3755,-3.3764,-3.3745,-3.3728,-3.3734,-3.3743,-3.3734,-3.374,-3.3773,-3.3757,-3.3631,-3.3612,-3.3594,-3.3582,-3.3775,-3.3775,-3.389,-3.3891,-3.3892]},{"header":{"parameterUnit":"m.s-1","parameterCategory":1,"la1":30.2991,"la2":30.254,"lo1":-89.0895,"lo2":-89.0444,"dy":0.0017,"dx":0.0017,"nx":28,"ny":28,"refTime":"2023-09-24T09:00:00:Z","depth":0,"parameterNumber":3,"parameterNumberName":"V-component_of_WINDS"},"data":[0,0,0,0,0,0,0,0,0,0,0,0,0,0,0,0,0,0,0,0,0,0,0,0,0,0,0,0,0,0,0,0,0,0,0,0,0,0,0,0,0,0,0,0,0,0,0,0,0,0,0,0,0,0,0,0,0,0,1.8627,1.8628,0,1.8701,1.8702,1.8702,1.8745,1.8745,1.8745,1.8745,1.8815,1.8817,1.8819,0,0,0,0,0,0,0,0,0,0,0,0,0,1.8516,1.8518,1.8627,1.8628,1.8629,1.8701,1.8702,1.8703,1.8745,1.8745,1.8745,1.8745,1.8815,1.8817,1.8819,0,0,0,0,0,0,0,0,0,0,0,0,0,1.8574,1.8518,1.8627,1.8658,1.8662,1.87,1.8702,1.8703,1.8745,1.8745,1.8745,1.8745,1.8814,1.8817,1.8819,1.883,0,0,1.8827,1.8828,0,0,0,0,0,0,0,0,1.8571,1.8578,1.8653,1.8656,1.866,1.8714,1.8688,1.8745,1.8745,1.8713,1.8745,1.8745,1.8781,1.8786,1.8799,1.8833,1.8836,1.8827,1.8829,1.883,1.8831,0,0,0,0,0,0,0,1.8567,1.8575,1.8656,1.8654,1.8658,1.8667,1.8676,1.8699,1.8744,1.8716,1.8719,1.8728,1.8783,1.8797,1.8801,1.8837,1.8827,1.8829,1.8831,1.8832,1.8883,1.8883,0,0,0,0,0,0,1.8558,1.8571,1.8653,1.8658,1.8615,1.8669,1.8678,1.8696,1.8744,1.8752,1.8727,1.8729,1.8792,1.8798,1.8804,1.882,1.883,1.8832,1.8834,1.8883,1.8883,1.8882,0,0,0,0,0,0,1.8556,1.8565,1.8651,1.8616,1.8627,1.867,1.869,1.8698,1.8712,1.8753,1.8761,1.8734,1.8793,1.88,1.8823,1.8823,1.8833,1.8836,1.8883,1.8883,1.8883,1.8851,0,0,0,0,0,0,1.8552,1.8564,1.857,1.8616,1.8629,1.867,1.869,1.8699,1.8717,1.872,1.8761,1.8768,1.8794,1.8819,1.8826,1.8826,1.8838,1.8883,1.8883,1.8883,1.8852,1.885,1.8848,0,0,0,0,0,1.8548,1.8557,1.857,1.858,1.8638,1.867,1.8678,1.8709,1.8716,1.8722,1.8748,1.8767,1.8822,1.8821,1.8829,1.883,1.8884,1.8883,1.8883,1.8854,1.885,1.8848,0,0,0,0,0,0,1.8509,1.8564,1.8579,1.8603,1.8632,1.8677,1.8685,1.8704,1.873,1.8732,1.8767,1.8776,1.8795,1.8815,1.8814,1.8843,1.8854,1.8856,1.883,1.8827,1.8825,1.8819,1.884,0,0,0,0,0,1.8503,1.8527,1.8573,1.859,1.8604,1.8642,1.8657,1.8679,1.8709,1.8721,1.8749,1.8776,1.88,1.8814,1.8838,1.8855,1.8864,1.886,1.8857,1.8855,1.8856,1.8866,1.8864,1.8881,1.8881,1.8881,0,0,1.8491,1.8524,1.8536,1.8582,1.8607,1.8629,1.8652,1.8674,1.869,1.8724,1.8748,1.8769,1.8802,1.8822,1.8832,1.8839,1.8853,1.8855,1.8853,1.8854,1.8865,1.8863,1.8862,1.8881,1.8881,1.8881,0,0,1.848,1.8508,1.8526,1.855,1.8588,1.8614,1.8617,1.866,1.8676,1.8701,1.8727,1.8745,1.8785,1.8807,1.8824,1.8821,1.8839,1.8828,1.8815,1.8824,1.8823,1.8822,1.882,1.882,1.8828,1.8828,1.8828,0,1.846,1.8497,1.8531,1.8553,1.8571,1.8604,1.8621,1.8642,1.8685,1.8697,1.8704,1.8755,1.8779,1.8804,1.8804,1.8816,1.8821,1.8823,1.8821,1.882,1.8819,1.8818,1.8818,1.8826,1.8827,1.8827,1.8827,0,1.847,1.8494,1.8503,1.8546,1.8565,1.8584,1.862,1.8635,1.8654,1.8678,1.8702,1.8733,1.8763,1.8771,1.8789,1.8799,1.8802,1.8814,1.8827,1.8816,1.8815,1.8815,1.8824,1.8825,1.8825,1.8826,0,0,1.8437,1.8499,1.8501,1.8521,1.8565,1.8583,1.8602,1.8634,1.8646,1.8674,1.8691,1.8723,1.8736,1.8754,1.8775,1.8783,1.8779,1.8795,1.8796,1.8791,1.879,1.878,1.8779,1.879,1.879,1.8791,1.8787,0,1.8432,1.8471,1.8503,1.8529,1.8551,1.8582,1.8599,1.8626,1.8649,1.867,1.8694,1.8717,1.8731,1.8742,1.8752,1.8777,1.8779,1.8778,1.8804,1.8805,1.8796,1.8779,1.8769,1.8765,1.8787,1.8787,1.8787,0,1.8433,1.8462,1.8491,1.8532,1.8543,1.8558,1.8589,1.8609,1.864,1.8656,1.8676,1.8699,1.8718,1.8729,1.8756,1.8754,1.8767,1.8781,1.8781,1.8785,1.8795,1.8782,1.8764,1.8763,1.8788,1.8788,1.8788,0,1.8406,1.8451,1.8475,1.849,1.854,1.8549,1.8569,1.8601,1.8618,1.8645,1.8656,1.8683,1.8698,1.8718,1.8746,1.8751,1.877,1.8783,1.8783,1.8782,1.8785,1.8785,1.8769,1.8793,1.8793,1.8793,1.8793,0,1.8398,1.8414,1.8463,1.8477,1.8496,1.8531,1.8548,1.857,1.8598,1.8616,1.8644,1.866,1.8696,1.8716,1.8738,1.8756,1.8763,1.8775,1.8781,1.8773,1.8771,1.8781,1.8782,1.8793,1.8793,1.8793,1.8793,0,1.8371,1.8404,1.8432,1.8476,1.8488,1.8499,1.8537,1.855,1.8575,1.8597,1.8604,1.8641,1.8665,1.8696,1.8729,1.8744,1.876,1.8769,1.875,1.8754,1.8752,1.8751,1.8742,1.8742,1.8766,1.8766,1.8766,0,1.8363,1.8377,1.8423,1.8438,1.8459,1.8482,1.85,1.8534,1.8551,1.8587,1.8596,1.8623,1.8647,1.8684,1.8713,1.8738,1.8748,1.8742,1.8751,1.8743,1.8747,1.8746,1.8747,1.874,1.8739,1.8739,1.8739,0,1.8347,1.8363,1.8389,1.842,1.8441,1.8466,1.8493,1.8503,1.8542,1.8559,1.8586,1.8604,1.8639,1.8665,1.8694,1.8713,1.8732,1.8736,1.8737,1.8729,1.8718,1.8724,1.8744,1.8736,1.8736,1.8736,1.8737,1.8737,1.833,1.8343,1.8378,1.8405,1.8429,1.8453,1.8469,1.8495,1.8518,1.8551,1.8569,1.8594,1.8624,1.8666,1.8684,1.8703,1.871,1.8712,1.8713,1.8713,1.871,1.8715,1.8709,1.8709,1.8709,1.8709,1.8709,0,1.8314,1.8338,1.8363,1.84,1.8421,1.8439,1.8469,1.8485,1.8508,1.8535,1.8558,1.8588,1.8613,1.8644,1.8671,1.868,1.8689,1.8686,1.8685,1.8689,1.8702,1.8699,1.8678,1.8678,1.8678,1.8678,1.8678,1.8678,1.8309,1.8332,1.8352,1.8387,1.8411,1.8438,1.8453,1.8475,1.8497,1.853,1.8551,1.8572,1.86,1.863,1.8653,1.8661,1.8669,1.8663,1.8674,1.8686,1.8688,1.8691,1.8688,1.8665,1.8665,1.8659,1.8659,1.8659]}]]